Regional Weather Roundup
Issued by NWS

Home | Current Version | Previous Version | Graphics & Text | Print | Product List | Glossary Off
Versions: 1 2 3 4 5 6 7 8 9 10 11 12 13 14 15 16 17 18 19 20 21 22 23 24 25 26 27 28 29 30 31 32 33 34 35 36 37 38 39 40 41 42 43 44 45 46 47 48 49 50

741
ASUS43 KLSX 111007
RWRMO

WEATHER SUMMARY FOR MISSOURI
NATIONAL WEATHER SERVICE SPRINGFIELD MO
400 AM CST THU FEB 11 2016

NOTE: "FAIR" INDICATES FEW OR NO CLOUDS BELOW 12,000 FEET WITH NO
       SIGNIFICANT WEATHER AND/OR OBSTRUCTIONS TO VISIBILITY.
       CURRENT SKY AND/OR WEATHER CONDITIONS ARE NOT AVAILABLE FOR
       CHILLICOTHE AND FARMINGTON.

MOZ001>031-035>038-043-044-053-054-111100-
...NORTHERN AND WESTERN MISSOURI...

CITY           SKY/WX    TMP DP  RH WIND       PRES   REMARKS
KANSAS CTY INT PTCLDY    22  19  89 NE12      30.17R WCI  10
KANSAS C DTWN  PTCLDY    24  19  81 NE8       30.19R WCI  15
LEE`S SUMMIT   CLEAR     23  18  81 NE10      30.16R WCI  12
ST JOSEPH      CLOUDY    23  18  81 NE8       30.21R WCI  14
CHILLICOTHE      N/A     24  17  74 NE9       30.23R WCI  14
KIRKSVILLE     CLOUDY    19  13  77 NE13      30.22R WCI   6

$$
MOZ066>068-077>081-088>096-101>105-111100-
...SOUTHWEST MISSOURI...

CITY           SKY/WX    TMP DP  RH WIND       PRES   REMARKS
SPRINGFIELD    CLOUDY    29  16  58 NE5       30.04R WCI  24
JOPLIN         CLOUDY    32  23  69 NE13      30.05R WCI  22

$$
MOZ032>034-039>042-045>050-055>058-069>072-111100-
...CENTRAL MISSOURI...

CITY           SKY/WX    TMP DP  RH WIND       PRES   REMARKS
COLUMBIA       CLOUDY    20  17  88 NE8       30.15R WCI  10
JEFFERSON CITY CLEAR     24  18  77 E5        30.17R WCI  18
ROLLA          CLOUDY    23  18  81 E8        30.09F WCI  14
SEDALIA        CLEAR     23  18  81 NE8       30.16R WCI  14
WHITEMAN AFB   CLEAR     22  19  87 NE9       30.15R WCI  12
WARRENSBURG    CLEAR     23  19  86 N8        30.17R WCI  14
OSAGE BEACH    CLEAR     21  16  79 NE7       30.12S WCI  13

$$
MOZ051-052-059>065-111100-
...EAST CENTRAL MISSOURI...

CITY           SKY/WX    TMP DP  RH WIND       PRES   REMARKS
ST LOUIS INTL  CLOUDY    24  18  77 NE8       30.20R WCI  15
SPIRIT OF STL  CLOUDY    24  20  84 NE8       30.19R WCI  15
ST CHARLES     CLOUDY    22  17  81 NE10      30.21R WCI  11

$$
MOZ072>076-082>087-097>100-106>115-111100-
...SOUTH CENTRAL AND SOUTHEAST MISSOURI...

CITY           SKY/WX    TMP DP  RH WIND       PRES   REMARKS
CAPE GIRARDEAU CLOUDY    25  21  85 NE8       30.16R WCI  16
FARMINGTON     CLOUDY    22  19  89 NE5       30.14S WCI  16
POPLAR BLUFF   CLEAR     24  19  81 NE12      30.14R WCI  13
WEST PLAINS    CLOUDY    21  11  65 NE8       30.07R WCI  11

$$



USA.gov is the U.S. government's official web portal to all federal, state and local government web resources and services.